Time,TemperatureF,DewpointF,PressureIn,WindDirection,WindDirectionDegrees,WindSpeedMPH,WindSpeedGustMPH,Humidity,HourlyPrecipIn,Conditions,Clouds,dailyrainin,SoftwareType,DateUTC
2013-03-04 00:00:00,50.4,39.0,29.57,NNW,337,0.0,0.0,65,0.00,,,0.00,WUHU21623XXSP,2013-03-04 05:00:00,
2013-03-04 00:05:00,50.5,39.2,29.58,NW,315,0.0,0.0,65,0.00,,,0.00,WUHU21623XXSP,2013-03-04 05:05:00,
2013-03-04 00:10:00,50.5,39.2,29.58,NNW,337,0.0,0.0,65,0.00,,,0.00,WUHU21623XXSP,2013-03-04 05:10:00,
2013-03-04 00:15:00,50.4,39.0,29.58,NNW,337,0.0,0.0,65,0.00,,,0.00,WUHU21623XXSP,2013-03-04 05:15:00,
2013-03-04 00:20:00,50.2,39.2,29.58,NNW,337,0.0,0.0,66,0.00,,,0.00,WUHU21623XXSP,2013-03-04 05:20:00,
2013-03-04 00:25:00,50.2,39.2,29.58,NW,315,0.0,0.0,66,0.00,,,0.00,WUHU21623XXSP,2013-03-04 05:25:00,
2013-03-04 00:30:00,49.8,38.9,29.58,North,0,0.0,0.0,66,0.00,,,0.00,WUHU21623XXSP,2013-03-04 05:30:00,
2013-03-04 00:35:00,49.8,38.9,29.58,NNE,22,0.0,0.0,66,0.00,,,0.00,WUHU21623XXSP,2013-03-04 05:35:00,
2013-03-04 00:40:00,49.6,38.7,29.58,NNW,337,0.0,0.0,66,0.00,,,0.00,WUHU21623XXSP,2013-03-04 05:40:00,
2013-03-04 00:45:00,49.6,39.1,29.58,NNW,337,0.0,0.0,67,0.00,,,0.00,WUHU21623XXSP,2013-03-04 05:45:00,
2013-03-04 00:50:00,49.3,38.4,29.57,NNW,337,0.0,0.0,66,0.00,,,0.00,WUHU21623XXSP,2013-03-04 05:50:00,
2013-03-04 00:55:00,49.3,38.4,29.57,NNW,337,0.0,0.0,66,0.00,,,0.00,WUHU21623XXSP,2013-03-04 05:55:00,
2013-03-04 01:00:00,49.3,38.4,29.57,NNW,337,0.0,0.0,66,0.00,,,0.00,WUHU21623XXSP,2013-03-04 06:00:00,
2013-03-04 01:05:00,49.1,38.2,29.58,NNW,337,0.0,0.0,66,0.00,,,0.00,WUHU21623XXSP,2013-03-04 06:05:00,
2013-03-04 01:10:00,49.1,38.2,29.58,NNW,337,0.0,0.0,66,0.00,,,0.00,WUHU21623XXSP,2013-03-04 06:10:00,
2013-03-04 01:15:00,48.9,38.0,29.58,WNW,292,0.0,0.0,66,0.00,,,0.00,WUHU21623XXSP,2013-03-04 06:15:00,
2013-03-04 01:20:00,48.9,37.6,29.58,NNW,337,0.0,0.0,65,0.00,,,0.00,WUHU21623XXSP,2013-03-04 06:20:00,
2013-03-04 01:25:00,48.7,37.5,29.58,NW,315,0.0,0.0,65,0.00,,,0.00,WUHU21623XXSP,2013-03-04 06:25:00,
2013-03-04 01:30:00,48.7,37.5,29.58,WNW,292,0.0,0.0,65,0.00,,,0.00,WUHU21623XXSP,2013-03-04 06:30:00,
2013-03-04 01:35:00,48.6,37.3,29.58,WNW,292,0.0,0.0,65,0.00,,,0.00,WUHU21623XXSP,2013-03-04 06:35:00,
2013-03-04 01:40:00,48.4,37.1,29.58,NW,315,0.0,0.0,65,0.00,,,0.00,WUHU21623XXSP,2013-03-04 06:40:00,
2013-03-04 01:45:00,48.2,37.0,29.58,NNW,337,0.0,0.0,65,0.00,,,0.00,WUHU21623XXSP,2013-03-04 06:45:00,
2013-03-04 01:50:00,48.0,36.8,29.57,North,0,0.0,0.0,65,0.00,,,0.00,WUHU21623XXSP,2013-03-04 06:50:00,
2013-03-04 01:55:00,47.8,36.2,29.58,NNW,337,0.0,0.0,64,0.00,,,0.00,WUHU21623XXSP,2013-03-04 06:55:00,
2013-03-04 02:00:00,47.8,36.2,29.58,North,0,0.0,0.0,64,0.00,,,0.00,WUHU21623XXSP,2013-03-04 07:00:00,
2013-03-04 02:05:00,47.7,36.4,29.58,North,0,0.0,0.0,65,0.00,,,0.00,WUHU21623XXSP,2013-03-04 07:05:00,
2013-03-04 02:10:00,47.7,36.4,29.57,ENE,67,0.0,0.0,65,0.00,,,0.00,WUHU21623XXSP,2013-03-04 07:10:00,
2013-03-04 02:15:00,47.8,36.6,29.57,NNW,337,0.0,0.0,65,0.00,,,0.00,WUHU21623XXSP,2013-03-04 07:15:00,
2013-03-04 02:20:00,47.3,36.5,29.57,NNE,22,0.0,0.0,66,0.00,,,0.00,WUHU21623XXSP,2013-03-04 07:20:00,
2013-03-04 02:25:00,47.1,35.9,29.57,NW,315,0.0,0.0,65,0.00,,,0.00,WUHU21623XXSP,2013-03-04 07:25:00,
2013-03-04 02:30:00,46.9,35.7,29.57,NNW,337,0.0,0.0,65,0.00,,,0.00,WUHU21623XXSP,2013-03-04 07:30:00,
2013-03-04 02:35:00,46.6,35.4,29.57,North,0,0.0,0.0,65,0.00,,,0.00,WUHU21623XXSP,2013-03-04 07:35:00,
2013-03-04 02:40:00,46.6,35.0,29.57,NW,315,0.0,0.0,64,0.00,,,0.00,WUHU21623XXSP,2013-03-04 07:40:00,
2013-03-04 02:45:00,46.2,34.7,29.57,NNW,337,0.0,0.0,64,0.00,,,0.00,WUHU21623XXSP,2013-03-04 07:45:00,
2013-03-04 02:50:00,46.2,34.7,29.57,North,0,0.0,0.0,64,0.00,,,0.00,WUHU21623XXSP,2013-03-04 07:50:00,
2013-03-04 02:55:00,46.2,34.7,29.57,NNE,22,0.0,0.0,64,0.00,,,0.00,WUHU21623XXSP,2013-03-04 07:55:00,
2013-03-04 03:00:00,46.2,34.7,29.57,NNW,337,0.0,0.0,64,0.00,,,0.00,WUHU21623XXSP,2013-03-04 08:00:00,
2013-03-04 03:05:00,46.0,34.1,29.56,NNW,337,0.0,0.0,63,0.00,,,0.00,WUHU21623XXSP,2013-03-04 08:05:00,
2013-03-04 03:10:00,46.0,34.1,29.56,NNW,337,0.0,0.0,63,0.00,,,0.00,WUHU21623XXSP,2013-03-04 08:10:00,
2013-03-04 03:15:00,46.0,34.1,29.57,NW,315,0.0,0.0,63,0.00,,,0.00,WUHU21623XXSP,2013-03-04 08:15:00,
2013-03-04 03:20:00,45.7,33.8,29.57,NNE,22,0.0,0.0,63,0.00,,,0.00,WUHU21623XXSP,2013-03-04 08:20:00,
2013-03-04 03:25:00,45.9,33.5,29.57,North,0,0.0,0.0,62,0.00,,,0.00,WUHU21623XXSP,2013-03-04 08:25:00,
2013-03-04 03:30:00,45.7,33.4,29.57,NNW,337,0.0,0.0,62,0.00,,,0.00,WUHU21623XXSP,2013-03-04 08:30:00,
2013-03-04 03:35:00,45.7,33.4,29.57,NNW,337,0.0,0.0,62,0.00,,,0.00,WUHU21623XXSP,2013-03-04 08:35:00,
2013-03-04 03:40:00,45.5,33.2,29.56,North,0,0.0,0.0,62,0.00,,,0.00,WUHU21623XXSP,2013-03-04 08:40:00,
2013-03-04 03:45:00,45.3,33.4,29.57,North,0,0.0,0.0,63,0.00,,,0.00,WUHU21623XXSP,2013-03-04 08:45:00,
2013-03-04 03:50:00,45.3,33.4,29.56,NW,315,0.0,0.0,63,0.00,,,0.00,WUHU21623XXSP,2013-03-04 08:50:00,
2013-03-04 03:55:00,45.3,33.4,29.57,NNW,337,0.0,0.0,63,0.00,,,0.00,WUHU21623XXSP,2013-03-04 08:55:00,
2013-03-04 04:00:00,45.1,33.3,29.57,NNW,337,0.0,0.0,63,0.00,,,0.00,WUHU21623XXSP,2013-03-04 09:00:00,
2013-03-04 04:05:00,45.1,32.9,29.57,North,0,0.0,0.0,62,0.00,,,0.00,WUHU21623XXSP,2013-03-04 09:05:00,
2013-03-04 04:10:00,45.1,32.9,29.57,NNW,337,0.0,0.0,62,0.00,,,0.00,WUHU21623XXSP,2013-03-04 09:10:00,
2013-03-04 04:15:00,45.0,32.7,29.58,North,0,0.0,0.0,62,0.00,,,0.00,WUHU21623XXSP,2013-03-04 09:15:00,
2013-03-04 04:20:00,45.0,32.7,29.58,NNE,22,0.0,0.0,62,0.00,,,0.00,WUHU21623XXSP,2013-03-04 09:20:00,
2013-03-04 04:25:00,45.0,32.7,29.58,NNW,337,0.0,0.0,62,0.00,,,0.00,WUHU21623XXSP,2013-03-04 09:25:00,
2013-03-04 04:30:00,45.0,32.7,29.58,NNW,337,0.0,0.0,62,0.00,,,0.00,WUHU21623XXSP,2013-03-04 09:30:00,
2013-03-04 04:35:00,44.8,32.6,29.58,NNW,337,0.0,0.0,62,0.00,,,0.00,WUHU21623XXSP,2013-03-04 09:35:00,
2013-03-04 04:40:00,44.8,32.6,29.58,North,0,0.0,0.0,62,0.00,,,0.00,WUHU21623XXSP,2013-03-04 09:40:00,
2013-03-04 04:45:00,44.8,32.6,29.59,NNW,337,0.0,0.0,62,0.00,,,0.00,WUHU21623XXSP,2013-03-04 09:45:00,
2013-03-04 04:50:00,44.6,32.4,29.59,NNW,337,0.0,0.0,62,0.00,,,0.00,WUHU21623XXSP,2013-03-04 09:50:00,
2013-03-04 04:55:00,44.6,32.4,29.60,North,0,0.0,0.0,62,0.00,,,0.00,WUHU21623XXSP,2013-03-04 09:55:00,
2013-03-04 05:00:00,44.6,32.4,29.59,NNW,337,0.0,0.0,62,0.00,,,0.00,WUHU21623XXSP,2013-03-04 10:00:00,
2013-03-04 05:05:00,44.6,32.8,29.59,NNE,22,0.0,0.0,63,0.00,,,0.00,WUHU21623XXSP,2013-03-04 10:05:00,
2013-03-04 05:10:00,44.4,32.6,29.60,NNW,337,0.0,0.0,63,0.00,,,0.00,WUHU21623XXSP,2013-03-04 10:10:00,
2013-03-04 05:15:00,44.4,33.0,29.60,NW,315,0.0,0.0,64,0.00,,,0.00,WUHU21623XXSP,2013-03-04 10:15:00,
2013-03-04 05:20:00,44.4,33.0,29.60,NNW,337,0.0,0.0,64,0.00,,,0.00,WUHU21623XXSP,2013-03-04 10:20:00,
2013-03-04 05:26:00,44.2,33.2,29.59,NNW,337,0.0,0.0,65,0.00,,,0.00,WUHU21623XXSP,2013-03-04 10:26:00,
2013-03-04 05:31:00,44.2,33.2,29.60,NNW,337,0.0,0.0,65,0.00,,,0.00,WUHU21623XXSP,2013-03-04 10:31:00,
2013-03-04 05:36:00,44.2,33.2,29.60,North,0,0.0,0.0,65,0.00,,,0.00,WUHU21623XXSP,2013-03-04 10:36:00,
2013-03-04 05:41:00,44.2,33.2,29.60,NNW,337,0.0,0.0,65,0.00,,,0.00,WUHU21623XXSP,2013-03-04 10:41:00,
2013-03-04 05:46:00,44.2,33.6,29.60,NNW,337,0.0,0.0,66,0.00,,,0.00,WUHU21623XXSP,2013-03-04 10:46:00,
2013-03-04 05:51:00,44.2,33.6,29.60,NNW,337,0.0,0.0,66,0.00,,,0.00,WUHU21623XXSP,2013-03-04 10:51:00,
2013-03-04 05:56:00,44.1,33.4,29.61,NNW,337,0.0,0.0,66,0.00,,,0.00,WUHU21623XXSP,2013-03-04 10:56:00,
2013-03-04 06:01:00,43.9,33.2,29.60,NNW,337,0.0,0.0,66,0.00,,,0.00,WUHU21623XXSP,2013-03-04 11:01:00,
2013-03-04 06:06:00,43.9,33.2,29.60,NNW,337,0.0,0.0,66,0.00,,,0.00,WUHU21623XXSP,2013-03-04 11:06:00,
2013-03-04 06:11:00,43.9,33.2,29.61,NNW,337,0.0,0.0,66,0.00,,,0.00,WUHU21623XXSP,2013-03-04 11:11:00,
2013-03-04 06:16:00,43.7,33.4,29.61,NNW,337,0.0,0.0,67,0.00,,,0.00,WUHU21623XXSP,2013-03-04 11:16:00,
2013-03-04 06:21:00,43.7,33.4,29.61,NNW,337,0.0,0.0,67,0.00,,,0.00,WUHU21623XXSP,2013-03-04 11:21:00,
2013-03-04 06:26:00,43.9,33.2,29.62,NNW,337,0.0,0.0,66,0.00,,,0.00,WUHU21623XXSP,2013-03-04 11:26:00,
2013-03-04 06:31:00,43.9,33.2,29.62,NNW,337,0.0,0.0,66,0.00,,,0.00,WUHU21623XXSP,2013-03-04 11:31:00,
2013-03-04 06:36:00,43.7,33.1,29.62,NNW,337,0.0,0.0,66,0.00,,,0.00,WUHU21623XXSP,2013-03-04 11:36:00,
2013-03-04 06:41:00,43.7,33.4,29.62,NNW,337,0.0,0.0,67,0.00,,,0.00,WUHU21623XXSP,2013-03-04 11:41:00,
2013-03-04 06:46:00,43.7,33.1,29.63,NNW,337,0.0,0.0,66,0.00,,,0.00,WUHU21623XXSP,2013-03-04 11:46:00,
2013-03-04 06:51:00,43.9,33.6,29.63,NNW,337,0.0,0.0,67,0.00,,,0.00,WUHU21623XXSP,2013-03-04 11:51:00,
2013-03-04 06:56:00,44.1,33.8,29.63,North,0,0.0,0.0,67,0.00,,,0.00,WUHU21623XXSP,2013-03-04 11:56:00,
2013-03-04 07:01:00,44.1,33.4,29.63,NNW,337,0.0,0.0,66,0.00,,,0.00,WUHU21623XXSP,2013-03-04 12:01:00,
2013-03-04 07:06:00,44.1,33.4,29.63,North,0,0.0,0.0,66,0.00,,,0.00,WUHU21623XXSP,2013-03-04 12:06:00,
2013-03-04 07:11:00,44.2,33.6,29.63,NNW,337,0.0,0.0,66,0.00,,,0.00,WUHU21623XXSP,2013-03-04 12:11:00,
2013-03-04 07:16:00,44.6,33.5,29.63,NNW,337,0.0,0.0,65,0.00,,,0.00,WUHU21623XXSP,2013-03-04 12:16:00,
2013-03-04 07:21:00,45.0,33.9,29.63,NNW,337,0.0,0.0,65,0.00,,,0.00,WUHU21623XXSP,2013-03-04 12:21:00,
2013-03-04 07:26:00,45.0,33.5,29.63,NNW,337,0.0,0.0,64,0.00,,,0.00,WUHU21623XXSP,2013-03-04 12:26:00,
2013-03-04 07:31:00,45.7,34.2,29.63,North,0,0.0,0.0,64,0.00,,,0.00,WUHU21623XXSP,2013-03-04 12:31:00,
2013-03-04 07:36:00,46.0,34.1,29.64,NNE,22,0.0,0.0,63,0.00,,,0.00,WUHU21623XXSP,2013-03-04 12:36:00,
2013-03-04 07:41:00,46.2,33.9,29.63,NNW,337,0.0,0.0,62,0.00,,,0.00,WUHU21623XXSP,2013-03-04 12:41:00,
2013-03-04 07:46:00,46.2,33.9,29.63,NNW,337,0.0,0.0,62,0.00,,,0.00,WUHU21623XXSP,2013-03-04 12:46:00,
2013-03-04 07:55:00,47.5,34.3,29.64,NNW,337,0.0,0.0,60,0.00,,,0.00,WUHU21623XXSP,2013-03-04 12:55:00,
2013-03-04 08:00:00,48.0,33.9,29.64,NNW,337,0.0,0.0,58,0.00,,,0.00,WUHU21623XXSP,2013-03-04 13:00:00,
2013-03-04 08:05:00,48.4,34.8,29.64,NNW,337,0.0,0.0,59,0.00,,,0.00,WUHU21623XXSP,2013-03-04 13:05:00,
2013-03-04 08:10:00,48.7,34.1,29.65,NNW,337,0.0,0.0,57,0.00,,,0.00,WUHU21623XXSP,2013-03-04 13:10:00,
2013-03-04 08:15:00,49.3,33.7,29.65,NE,45,0.0,0.0,55,0.00,,,0.00,WUHU21623XXSP,2013-03-04 13:15:00,
2013-03-04 08:20:00,49.1,33.6,29.65,NW,315,0.0,0.0,55,0.00,,,0.00,WUHU21623XXSP,2013-03-04 13:20:00,
2013-03-04 08:25:00,49.8,33.4,29.65,NE,45,0.0,0.0,53,0.00,,,0.00,WUHU21623XXSP,2013-03-04 13:25:00,
2013-03-04 08:30:00,50.4,33.9,29.65,NW,315,0.0,0.0,53,0.00,,,0.00,WUHU21623XXSP,2013-03-04 13:30:00,
2013-03-04 08:35:00,50.5,34.0,29.65,NNE,22,0.0,0.0,53,0.00,,,0.00,WUHU21623XXSP,2013-03-04 13:35:00,
2013-03-04 08:40:00,50.9,34.3,29.65,NE,45,0.0,0.0,53,0.00,,,0.00,WUHU21623XXSP,2013-03-04 13:40:00,
2013-03-04 08:45:00,50.9,33.9,29.65,NW,315,0.0,0.0,52,0.00,,,0.00,WUHU21623XXSP,2013-03-04 13:45:00,
2013-03-04 08:50:00,51.1,33.6,29.66,NNW,337,0.0,0.0,51,0.00,,,0.00,WUHU21623XXSP,2013-03-04 13:50:00,
2013-03-04 08:55:00,52.0,34.4,29.66,NNW,337,0.0,0.0,51,0.00,,,0.00,WUHU21623XXSP,2013-03-04 13:55:00,
2013-03-04 09:00:00,52.0,34.4,29.66,North,0,0.0,0.0,51,0.00,,,0.00,WUHU21623XXSP,2013-03-04 14:00:00,
2013-03-04 09:05:00,52.3,34.7,29.66,NNW,337,0.0,0.0,51,0.00,,,0.00,WUHU21623XXSP,2013-03-04 14:05:00,
2013-03-04 09:10:00,52.7,34.6,29.66,NW,315,0.0,0.0,50,0.00,,,0.00,WUHU21623XXSP,2013-03-04 14:10:00,
2013-03-04 09:15:00,53.2,34.5,29.65,NNW,337,0.0,0.0,49,0.00,,,0.00,WUHU21623XXSP,2013-03-04 14:15:00,
2013-03-04 09:20:00,53.4,34.7,29.66,NNW,337,0.0,0.0,49,0.00,,,0.00,WUHU21623XXSP,2013-03-04 14:20:00,
2013-03-04 09:25:00,53.8,35.0,29.66,NNW,337,0.0,0.0,49,0.00,,,0.00,WUHU21623XXSP,2013-03-04 14:25:00,
2013-03-04 09:30:00,54.0,35.2,29.65,NNE,22,0.0,0.0,49,0.00,,,0.00,WUHU21623XXSP,2013-03-04 14:30:00,
2013-03-04 09:35:00,54.5,35.1,29.65,NE,45,0.0,0.0,48,0.00,,,0.00,WUHU21623XXSP,2013-03-04 14:35:00,
2013-03-04 09:40:00,54.9,34.9,29.65,NNW,337,0.0,0.0,47,0.00,,,0.00,WUHU21623XXSP,2013-03-04 14:40:00,
2013-03-04 09:45:00,55.2,35.2,29.65,North,0,0.0,0.0,47,0.00,,,0.00,WUHU21623XXSP,2013-03-04 14:45:00,
2013-03-04 09:50:00,55.2,35.2,29.65,NNE,22,0.0,0.0,47,0.00,,,0.00,WUHU21623XXSP,2013-03-04 14:50:00,
2013-03-04 09:55:00,55.6,35.0,29.65,NE,45,0.0,0.0,46,0.00,,,0.00,WUHU21623XXSP,2013-03-04 14:55:00,
2013-03-04 10:00:00,56.3,35.1,29.65,NNE,22,0.0,0.0,45,0.00,,,0.00,WUHU21623XXSP,2013-03-04 15:00:00,
2013-03-04 10:05:00,56.7,35.4,29.65,WNW,292,0.0,0.0,45,0.00,,,0.00,WUHU21623XXSP,2013-03-04 15:05:00,
2013-03-04 10:10:00,56.5,35.3,29.65,NE,45,0.0,0.0,45,0.00,,,0.00,WUHU21623XXSP,2013-03-04 15:10:00,
2013-03-04 10:15:00,57.2,36.0,29.65,NNW,337,0.0,0.0,45,0.00,,,0.00,WUHU21623XXSP,2013-03-04 15:15:00,
2013-03-04 10:20:00,57.4,35.5,29.65,North,0,0.0,0.0,44,0.00,,,0.00,WUHU21623XXSP,2013-03-04 15:20:00,
2013-03-04 10:25:00,57.9,36.0,29.65,North,0,0.0,0.0,44,0.00,,,0.00,WUHU21623XXSP,2013-03-04 15:25:00,
2013-03-04 10:30:00,57.9,36.0,29.65,NNE,22,0.0,0.0,44,0.00,,,0.00,WUHU21623XXSP,2013-03-04 15:30:00,
2013-03-04 10:35:00,58.5,35.9,29.65,North,0,0.0,0.0,43,0.00,,,0.00,WUHU21623XXSP,2013-03-04 15:35:00,
2013-03-04 10:40:00,58.3,35.2,29.65,NNW,337,0.0,0.0,42,0.00,,,0.00,WUHU21623XXSP,2013-03-04 15:40:00,
2013-03-04 10:45:00,59.2,35.4,29.65,NNW,337,0.0,0.0,41,0.00,,,0.00,WUHU21623XXSP,2013-03-04 15:45:00,
2013-03-04 10:50:00,58.8,34.5,29.65,North,0,0.0,0.0,40,0.00,,,0.00,WUHU21623XXSP,2013-03-04 15:50:00,
2013-03-04 10:55:00,59.0,34.7,29.65,NNW,337,0.0,0.0,40,0.00,,,0.00,WUHU21623XXSP,2013-03-04 15:55:00,
2013-03-04 11:00:00,60.1,35.0,29.65,North,0,0.0,0.0,39,0.00,,,0.00,WUHU21623XXSP,2013-03-04 16:00:00,
2013-03-04 11:05:00,60.6,36.2,29.64,North,0,0.0,0.0,40,0.00,,,0.00,WUHU21623XXSP,2013-03-04 16:05:00,
2013-03-04 11:10:00,61.3,36.1,29.65,NNW,337,0.0,0.0,39,0.00,,,0.00,WUHU21623XXSP,2013-03-04 16:10:00,
2013-03-04 11:15:00,60.6,36.2,29.64,WNW,292,0.0,0.0,40,0.00,,,0.00,WUHU21623XXSP,2013-03-04 16:15:00,
2013-03-04 11:20:00,61.0,36.5,29.64,NNE,22,0.0,0.0,40,0.00,,,0.00,WUHU21623XXSP,2013-03-04 16:20:00,
2013-03-04 11:25:00,61.0,36.5,29.64,NNE,22,0.0,0.0,40,0.00,,,0.00,WUHU21623XXSP,2013-03-04 16:25:00,
2013-03-04 11:35:00,63.1,36.7,29.64,NNW,337,0.0,0.0,38,0.00,,,0.00,WUHU21623XXSP,2013-03-04 16:35:00,
2013-03-04 11:40:00,62.8,37.4,29.64,NNE,22,0.0,0.0,39,0.00,,,0.00,WUHU21623XXSP,2013-03-04 16:40:00,
2013-03-04 11:45:00,63.5,37.3,29.63,NW,315,0.0,0.0,38,0.00,,,0.00,WUHU21623XXSP,2013-03-04 16:45:00,
2013-03-04 11:50:00,63.3,36.4,29.63,NNW,337,0.0,0.0,37,0.00,,,0.00,WUHU21623XXSP,2013-03-04 16:50:00,
2013-03-04 11:55:00,63.0,36.1,29.63,NE,45,0.0,0.0,37,0.00,,,0.00,WUHU21623XXSP,2013-03-04 16:55:00,
2013-03-04 12:00:00,64.8,37.7,29.63,WSW,247,0.0,0.0,37,0.00,,,0.00,WUHU21623XXSP,2013-03-04 17:00:00,
2013-03-04 12:05:00,64.8,38.0,29.63,WNW,292,0.0,0.0,36,0.00,,,0.00,WUHU21623XXSP,2013-03-04 17:05:00,
2013-03-04 12:10:00,66.0,38.1,29.63,WSW,247,0.0,0.0,36,0.00,,,0.00,WUHU21623XXSP,2013-03-04 17:10:00,
2013-03-04 12:15:00,66.7,38.8,29.63,NNE,22,0.0,0.0,36,0.00,,,0.00,WUHU21623XXSP,2013-03-04 17:15:00,
2013-03-04 12:20:00,67.1,38.3,29.62,West,270,0.0,0.0,35,0.00,,,0.00,WUHU21623XXSP,2013-03-04 17:20:00,
2013-03-04 12:25:00,66.7,38.0,29.62,NNW,337,0.0,0.0,35,0.00,,,0.00,WUHU21623XXSP,2013-03-04 17:25:00,
2013-03-04 12:30:00,65.7,37.1,29.61,NE,45,0.0,0.0,35,0.00,,,0.00,WUHU21623XXSP,2013-03-04 17:30:00,
2013-03-04 12:35:00,65.8,37.3,29.61,NNW,337,0.0,0.0,35,0.00,,,0.00,WUHU21623XXSP,2013-03-04 17:35:00,
2013-03-04 12:40:00,66.6,37.9,29.61,WNW,292,0.0,0.0,35,0.00,,,0.00,WUHU21623XXSP,2013-03-04 17:40:00,
2013-03-04 12:45:00,67.6,38.8,29.61,West,270,0.0,0.0,35,0.00,,,0.00,WUHU21623XXSP,2013-03-04 17:45:00,
2013-03-04 12:50:00,69.1,39.3,29.61,SSE,157,0.0,0.0,34,0.00,,,0.00,WUHU21623XXSP,2013-03-04 17:50:00,
2013-03-04 12:55:00,68.4,38.0,29.60,NNW,337,0.0,0.0,33,0.00,,,0.00,WUHU21623XXSP,2013-03-04 17:55:00,
2013-03-04 13:00:00,69.1,38.6,29.60,North,0,0.0,0.0,33,0.00,,,0.00,WUHU21623XXSP,2013-03-04 18:00:00,
2013-03-04 13:05:00,68.7,38.3,29.60,WSW,247,0.0,0.0,33,0.00,,,0.00,WUHU21623XXSP,2013-03-04 18:05:00,
2013-03-04 13:10:00,68.7,37.5,29.60,NNW,337,0.0,0.0,32,0.00,,,0.00,WUHU21623XXSP,2013-03-04 18:10:00,
2013-03-04 13:15:00,69.3,37.3,29.60,NNE,22,0.0,0.0,31,0.00,,,0.00,WUHU21623XXSP,2013-03-04 18:15:00,
2013-03-04 13:20:00,69.4,38.9,29.59,North,0,0.0,0.0,33,0.00,,,0.00,WUHU21623XXSP,2013-03-04 18:20:00,
2013-03-04 13:25:00,69.4,36.7,29.60,NNE,22,0.0,0.0,30,0.00,,,0.00,WUHU21623XXSP,2013-03-04 18:25:00,
2013-03-04 13:29:00,69.6,37.6,29.59,ENE,67,0.0,0.0,31,0.00,,,0.00,WUHU21623XXSP,2013-03-04 18:29:00,
2013-03-04 13:30:00,69.6,37.6,29.59,ENE,67,0.0,0.0,31,0.00,,,0.00,WUHU21623XXSP,2013-03-04 18:30:00,
2013-03-04 13:35:00,69.4,36.7,29.59,North,0,0.0,0.0,30,0.00,,,0.00,WUHU21623XXSP,2013-03-04 18:35:00,
2013-03-04 13:40:00,70.3,38.3,29.59,WNW,292,0.0,0.0,31,0.00,,,0.00,WUHU21623XXSP,2013-03-04 18:40:00,
2013-03-04 13:45:00,70.2,37.4,29.59,West,270,0.0,0.0,30,0.00,,,0.00,WUHU21623XXSP,2013-03-04 18:45:00,
2013-03-04 13:50:00,70.7,37.9,29.59,North,0,0.0,0.0,30,0.00,,,0.00,WUHU21623XXSP,2013-03-04 18:50:00,
2013-03-04 13:55:00,69.4,36.7,29.59,North,0,0.0,0.0,30,0.00,,,0.00,WUHU21623XXSP,2013-03-04 18:55:00,
2013-03-04 14:00:00,70.0,37.9,29.59,North,0,0.0,0.0,31,0.00,,,0.00,WUHU21623XXSP,2013-03-04 19:00:00,
2013-03-04 14:05:00,70.3,38.3,29.58,North,0,0.0,0.0,31,0.00,,,0.00,WUHU21623XXSP,2013-03-04 19:05:00,
2013-03-04 14:10:00,72.1,41.3,29.58,SE,135,0.0,0.0,33,0.00,,,0.00,WUHU21623XXSP,2013-03-04 19:10:00,
2013-03-04 14:15:00,72.5,41.6,29.58,South,180,0.0,0.0,33,0.00,,,0.00,WUHU21623XXSP,2013-03-04 19:15:00,
2013-03-04 14:20:00,72.0,41.2,29.58,SE,135,0.0,0.0,33,0.00,,,0.00,WUHU21623XXSP,2013-03-04 19:20:00,
2013-03-04 14:25:00,71.8,41.0,29.58,SSE,157,0.0,0.0,33,0.00,,,0.00,WUHU21623XXSP,2013-03-04 19:25:00,
2013-03-04 14:30:00,72.1,41.3,29.58,SSE,157,0.0,0.0,33,0.00,,,0.00,WUHU21623XXSP,2013-03-04 19:30:00,
2013-03-04 14:35:00,71.2,40.5,29.58,ENE,67,0.0,0.0,33,0.00,,,0.00,WUHU21623XXSP,2013-03-04 19:35:00,
2013-03-04 14:40:00,70.7,40.1,29.58,ENE,67,0.0,0.0,33,0.00,,,0.00,WUHU21623XXSP,2013-03-04 19:40:00,
2013-03-04 14:45:00,70.7,40.1,29.58,ENE,67,0.0,0.0,33,0.00,,,0.00,WUHU21623XXSP,2013-03-04 19:45:00,
2013-03-04 14:50:00,70.3,39.7,29.58,NE,45,0.0,0.0,33,0.00,,,0.00,WUHU21623XXSP,2013-03-04 19:50:00,
2013-03-04 14:55:00,70.9,41.0,29.58,SSE,157,0.0,0.0,34,0.00,,,0.00,WUHU21623XXSP,2013-03-04 19:55:00,
2013-03-04 15:00:00,72.0,41.2,29.58,ESE,112,0.0,0.0,33,0.00,,,0.00,WUHU21623XXSP,2013-03-04 20:00:00,
2013-03-04 15:05:00,71.2,39.8,29.58,NE,45,0.0,0.0,32,0.00,,,0.00,WUHU21623XXSP,2013-03-04 20:05:00,
2013-03-04 15:10:00,70.9,40.2,29.58,East,90,0.0,0.0,33,0.00,,,0.00,WUHU21623XXSP,2013-03-04 20:10:00,
2013-03-04 15:15:00,70.5,39.9,29.58,NE,45,0.0,0.0,33,0.00,,,0.00,WUHU21623XXSP,2013-03-04 20:15:00,
2013-03-04 15:20:00,70.9,40.2,29.58,NNE,22,0.0,0.0,33,0.00,,,0.00,WUHU21623XXSP,2013-03-04 20:20:00,
2013-03-04 15:25:00,70.7,40.8,29.58,East,90,0.0,0.0,34,0.00,,,0.00,WUHU21623XXSP,2013-03-04 20:25:00,
2013-03-04 15:30:00,70.9,41.0,29.57,ESE,112,0.0,0.0,34,0.00,,,0.00,WUHU21623XXSP,2013-03-04 20:30:00,
2013-03-04 15:35:00,71.2,41.3,29.58,NE,45,0.0,0.0,34,0.00,,,0.00,WUHU21623XXSP,2013-03-04 20:35:00,
2013-03-04 15:40:00,71.2,42.0,29.58,SE,135,0.0,0.0,35,0.00,,,0.00,WUHU21623XXSP,2013-03-04 20:40:00,
2013-03-04 15:45:00,71.8,41.8,29.57,ENE,67,0.0,0.0,34,0.00,,,0.00,WUHU21623XXSP,2013-03-04 20:45:00,
2013-03-04 15:50:00,70.7,40.8,29.57,NE,45,0.0,0.0,34,0.00,,,0.00,WUHU21623XXSP,2013-03-04 20:50:00,
2013-03-04 15:55:00,70.5,41.4,29.57,NE,45,0.0,0.0,35,0.00,,,0.00,WUHU21623XXSP,2013-03-04 20:55:00,
2013-03-04 16:00:00,70.2,41.1,29.58,ENE,67,0.0,0.0,35,0.00,,,0.00,WUHU21623XXSP,2013-03-04 21:00:00,
2013-03-04 16:05:00,70.2,41.1,29.58,North,0,0.0,0.0,35,0.00,,,0.00,WUHU21623XXSP,2013-03-04 21:05:00,
2013-03-04 16:10:00,69.6,41.3,29.58,NE,45,0.0,0.0,36,0.00,,,0.00,WUHU21623XXSP,2013-03-04 21:10:00,
2013-03-04 16:15:00,70.0,42.4,29.58,SE,135,0.0,0.0,37,0.00,,,0.00,WUHU21623XXSP,2013-03-04 21:15:00,
2013-03-04 16:20:00,69.4,41.1,29.58,NE,45,0.0,0.0,36,0.00,,,0.00,WUHU21623XXSP,2013-03-04 21:20:00,
2013-03-04 16:25:00,68.4,41.6,29.58,NE,45,0.0,0.0,38,0.00,,,0.00,WUHU21623XXSP,2013-03-04 21:25:00,
2013-03-04 16:30:00,68.0,42.1,29.58,SE,135,0.0,0.0,39,0.00,,,0.00,WUHU21623XXSP,2013-03-04 21:30:00,
2013-03-04 16:35:00,68.4,43.1,29.58,NE,45,0.0,0.0,40,0.00,,,0.00,WUHU21623XXSP,2013-03-04 21:35:00,
2013-03-04 16:40:00,67.6,42.5,29.58,ENE,67,0.0,0.0,40,0.00,,,0.00,WUHU21623XXSP,2013-03-04 21:40:00,
2013-03-04 16:45:00,67.8,43.2,29.57,ESE,112,0.0,0.0,41,0.00,,,0.00,WUHU21623XXSP,2013-03-04 21:45:00,
2013-03-04 16:50:00,67.3,42.2,29.58,NNE,22,0.0,0.0,40,0.00,,,0.00,WUHU21623XXSP,2013-03-04 21:50:00,
2013-03-04 16:55:00,66.9,41.8,29.58,NE,45,0.0,0.0,40,0.00,,,0.00,WUHU21623XXSP,2013-03-04 21:55:00,
2013-03-04 17:00:00,66.4,41.9,29.57,NE,45,0.0,0.0,41,0.00,,,0.00,WUHU21623XXSP,2013-03-04 22:00:00,
2013-03-04 17:05:00,66.4,42.5,29.58,ENE,67,0.0,0.0,42,0.00,,,0.00,WUHU21623XXSP,2013-03-04 22:05:00,
2013-03-04 17:10:00,66.0,41.6,29.58,NE,45,0.0,0.0,41,0.00,,,0.00,WUHU21623XXSP,2013-03-04 22:10:00,
2013-03-04 17:15:00,65.7,41.3,29.58,ENE,67,0.0,0.0,41,0.00,,,0.00,WUHU21623XXSP,2013-03-04 22:15:00,
2013-03-04 17:20:00,65.3,40.9,29.58,NE,45,0.0,0.0,41,0.00,,,0.00,WUHU21623XXSP,2013-03-04 22:20:00,
2013-03-04 17:25:00,65.1,41.4,29.58,NE,45,0.0,0.0,42,0.00,,,0.00,WUHU21623XXSP,2013-03-04 22:25:00,
2013-03-04 17:30:00,64.9,40.6,29.58,NE,45,0.0,0.0,41,0.00,,,0.00,WUHU21623XXSP,2013-03-04 22:30:00,
2013-03-04 17:35:00,64.6,40.3,29.58,NE,45,0.0,0.0,41,0.00,,,0.00,WUHU21623XXSP,2013-03-04 22:35:00,
2013-03-04 17:40:00,64.0,40.4,29.58,NE,45,0.0,0.0,42,0.00,,,0.00,WUHU21623XXSP,2013-03-04 22:40:00,
2013-03-04 17:45:00,63.5,39.9,29.59,NE,45,0.0,0.0,42,0.00,,,0.00,WUHU21623XXSP,2013-03-04 22:45:00,
2013-03-04 17:50:00,63.1,39.6,29.58,NE,45,0.0,0.0,42,0.00,,,0.00,WUHU21623XXSP,2013-03-04 22:50:00,
2013-03-04 17:55:00,62.8,38.7,29.59,NE,45,0.0,0.0,41,0.00,,,0.00,WUHU21623XXSP,2013-03-04 22:55:00,
2013-03-04 18:00:00,62.2,38.2,29.59,NNE,22,0.0,0.0,41,0.00,,,0.00,WUHU21623XXSP,2013-03-04 23:00:00,
2013-03-04 18:05:00,62.2,38.2,29.59,NE,45,0.0,0.0,41,0.00,,,0.00,WUHU21623XXSP,2013-03-04 23:05:00,
2013-03-04 18:10:00,61.9,37.9,29.59,NNE,22,0.0,0.0,41,0.00,,,0.00,WUHU21623XXSP,2013-03-04 23:10:00,
2013-03-04 18:15:00,61.9,36.6,29.59,NE,45,0.0,0.0,39,0.00,,,0.00,WUHU21623XXSP,2013-03-04 23:15:00,
2013-03-04 18:20:00,61.3,35.4,29.59,NE,45,0.0,0.0,38,0.00,,,0.00,WUHU21623XXSP,2013-03-04 23:20:00,
2013-03-04 18:25:00,61.2,34.5,29.60,NE,45,0.0,0.0,37,0.00,,,0.00,WUHU21623XXSP,2013-03-04 23:25:00,
2013-03-04 18:30:00,60.8,33.4,29.60,NE,45,0.0,0.0,36,0.00,,,0.00,WUHU21623XXSP,2013-03-04 23:30:00,
2013-03-04 18:35:00,60.6,33.3,29.60,NE,45,0.0,0.0,36,0.00,,,0.00,WUHU21623XXSP,2013-03-04 23:35:00,
2013-03-04 18:40:00,60.4,33.1,29.60,NE,45,0.0,0.0,36,0.00,,,0.00,WUHU21623XXSP,2013-03-04 23:40:00,
2013-03-04 18:45:00,60.4,33.1,29.60,NE,45,0.0,0.0,36,0.00,,,0.00,WUHU21623XXSP,2013-03-04 23:45:00,
2013-03-04 18:50:00,60.1,33.5,29.61,NE,45,0.0,0.0,37,0.00,,,0.00,WUHU21623XXSP,2013-03-04 23:50:00,
2013-03-04 18:55:00,59.9,33.4,29.60,NE,45,0.0,0.0,37,0.00,,,0.00,WUHU21623XXSP,2013-03-04 23:55:00,
2013-03-04 19:00:00,59.7,33.9,29.60,NE,45,0.0,0.0,38,0.00,,,0.00,WUHU21623XXSP,2013-03-05 00:00:00,
2013-03-04 19:05:00,59.7,33.9,29.60,NE,45,0.0,0.0,38,0.00,,,0.00,WUHU21623XXSP,2013-03-05 00:05:00,
2013-03-04 19:10:00,59.4,34.3,29.61,NE,45,0.0,0.0,39,0.00,,,0.00,WUHU21623XXSP,2013-03-05 00:10:00,
2013-03-04 19:15:00,58.8,33.8,29.60,NE,45,0.0,0.0,39,0.00,,,0.00,WUHU21623XXSP,2013-03-05 00:15:00,
2013-03-04 19:20:00,58.8,34.5,29.61,NE,45,0.0,0.0,40,0.00,,,0.00,WUHU21623XXSP,2013-03-05 00:20:00,
2013-03-04 19:25:00,58.8,34.5,29.60,NE,45,0.0,0.0,40,0.00,,,0.00,WUHU21623XXSP,2013-03-05 00:25:00,
2013-03-04 19:30:00,58.5,34.8,29.60,NE,45,0.0,0.0,41,0.00,,,0.00,WUHU21623XXSP,2013-03-05 00:30:00,
2013-03-04 19:35:00,58.3,35.2,29.60,NE,45,0.0,0.0,42,0.00,,,0.00,WUHU21623XXSP,2013-03-05 00:35:00,
2013-03-04 19:40:00,57.9,34.9,29.60,NE,45,0.0,0.0,42,0.00,,,0.00,WUHU21623XXSP,2013-03-05 00:40:00,
2013-03-04 19:45:00,57.9,35.5,29.60,NE,45,0.0,0.0,43,0.00,,,0.00,WUHU21623XXSP,2013-03-05 00:45:00,
2013-03-04 19:50:00,57.7,35.3,29.61,NE,45,0.0,0.0,43,0.00,,,0.00,WUHU21623XXSP,2013-03-05 00:50:00,
2013-03-04 19:55:00,57.7,35.9,29.61,NE,45,0.0,0.0,44,0.00,,,0.00,WUHU21623XXSP,2013-03-05 00:55:00,
2013-03-04 20:00:00,57.4,35.5,29.61,NE,45,0.0,0.0,44,0.00,,,0.00,WUHU21623XXSP,2013-03-05 01:00:00,
2013-03-04 20:05:00,57.4,36.1,29.61,NE,45,0.0,0.0,45,0.00,,,0.00,WUHU21623XXSP,2013-03-05 01:05:00,
2013-03-04 20:10:00,57.4,36.1,29.61,NE,45,0.0,0.0,45,0.00,,,0.00,WUHU21623XXSP,2013-03-05 01:10:00,
2013-03-04 20:15:00,57.0,36.4,29.62,NE,45,0.0,0.0,46,0.00,,,0.00,WUHU21623XXSP,2013-03-05 01:15:00,
2013-03-04 20:20:00,56.8,36.2,29.62,NE,45,0.0,0.0,46,0.00,,,0.00,WUHU21623XXSP,2013-03-05 01:20:00,
2013-03-04 20:25:00,56.8,36.8,29.62,NE,45,0.0,0.0,47,0.00,,,0.00,WUHU21623XXSP,2013-03-05 01:25:00,
2013-03-04 20:30:00,56.8,36.8,29.62,NE,45,0.0,0.0,47,0.00,,,0.00,WUHU21623XXSP,2013-03-05 01:30:00,
2013-03-04 20:35:00,56.5,37.0,29.62,NE,45,0.0,0.0,48,0.00,,,0.00,WUHU21623XXSP,2013-03-05 01:35:00,
2013-03-04 20:40:00,56.5,37.0,29.62,NE,45,0.0,0.0,48,0.00,,,0.00,WUHU21623XXSP,2013-03-05 01:40:00,
2013-03-04 20:45:00,56.5,37.0,29.62,NE,45,0.0,0.0,48,0.00,,,0.00,WUHU21623XXSP,2013-03-05 01:45:00,
2013-03-04 20:50:00,56.5,37.5,29.62,NE,45,0.0,0.0,49,0.00,,,0.00,WUHU21623XXSP,2013-03-05 01:50:00,
2013-03-04 20:55:00,56.3,37.4,29.62,NE,45,0.0,0.0,49,0.00,,,0.00,WUHU21623XXSP,2013-03-05 01:55:00,
2013-03-04 21:00:00,56.3,37.9,29.63,NE,45,0.0,0.0,50,0.00,,,0.00,WUHU21623XXSP,2013-03-05 02:00:00,
2013-03-04 21:05:00,56.1,37.8,29.63,NE,45,0.0,0.0,50,0.00,,,0.00,WUHU21623XXSP,2013-03-05 02:05:00,
2013-03-04 21:10:00,55.9,37.6,29.63,NE,45,0.0,0.0,50,0.00,,,0.00,WUHU21623XXSP,2013-03-05 02:10:00,
2013-03-04 21:15:00,55.8,37.4,29.63,NE,45,0.0,0.0,50,0.00,,,0.00,WUHU21623XXSP,2013-03-05 02:15:00,
2013-03-04 21:20:00,55.6,37.7,29.63,NE,45,0.0,0.0,51,0.00,,,0.00,WUHU21623XXSP,2013-03-05 02:20:00,
2013-03-04 21:25:00,55.2,37.8,29.63,NE,45,0.0,0.0,52,0.00,,,0.00,WUHU21623XXSP,2013-03-05 02:25:00,
2013-03-04 21:30:00,55.0,37.7,29.63,NE,45,0.0,0.0,52,0.00,,,0.00,WUHU21623XXSP,2013-03-05 02:30:00,
2013-03-04 21:35:00,55.0,38.1,29.63,NE,45,0.0,0.0,53,0.00,,,0.00,WUHU21623XXSP,2013-03-05 02:35:00,
2013-03-04 21:40:00,54.7,37.8,29.63,NE,45,0.0,0.0,53,0.00,,,0.00,WUHU21623XXSP,2013-03-05 02:40:00,
2013-03-04 21:45:00,54.5,38.1,29.63,NE,45,0.0,0.0,54,0.00,,,0.00,WUHU21623XXSP,2013-03-05 02:45:00,
2013-03-04 21:50:00,54.3,38.4,29.63,NE,45,0.0,0.0,55,0.00,,,0.00,WUHU21623XXSP,2013-03-05 02:50:00,
2013-03-04 21:55:00,54.3,38.4,29.63,NE,45,0.0,0.0,55,0.00,,,0.00,WUHU21623XXSP,2013-03-05 02:55:00,
2013-03-04 22:00:00,54.1,38.7,29.63,NE,45,0.0,0.0,56,0.00,,,0.00,WUHU21623XXSP,2013-03-05 03:00:00,
2013-03-04 22:05:00,54.1,38.7,29.63,NE,45,0.0,0.0,56,0.00,,,0.00,WUHU21623XXSP,2013-03-05 03:05:00,
2013-03-04 22:10:00,54.1,38.7,29.63,NE,45,0.0,0.0,56,0.00,,,0.00,WUHU21623XXSP,2013-03-05 03:10:00,
2013-03-04 22:15:00,53.8,38.9,29.63,NE,45,0.0,0.0,57,0.00,,,0.00,WUHU21623XXSP,2013-03-05 03:15:00,
2013-03-04 22:20:00,53.8,38.9,29.63,NE,45,0.0,0.0,57,0.00,,,0.00,WUHU21623XXSP,2013-03-05 03:20:00,
2013-03-04 22:25:00,53.6,39.2,29.63,NE,45,0.0,0.0,58,0.00,,,0.00,WUHU21623XXSP,2013-03-05 03:25:00,
2013-03-04 22:30:00,53.4,39.0,29.63,NE,45,0.0,0.0,58,0.00,,,0.00,WUHU21623XXSP,2013-03-05 03:30:00,
2013-03-04 22:35:00,53.4,39.0,29.63,NE,45,0.0,0.0,58,0.00,,,0.00,WUHU21623XXSP,2013-03-05 03:35:00,
2013-03-04 22:40:00,53.4,39.0,29.63,NE,45,0.0,0.0,58,0.00,,,0.00,WUHU21623XXSP,2013-03-05 03:40:00,
2013-03-04 22:45:00,53.2,39.3,29.63,NE,45,0.0,0.0,59,0.00,,,0.00,WUHU21623XXSP,2013-03-05 03:45:00,
2013-03-04 22:50:00,53.1,39.1,29.62,NE,45,0.0,0.0,59,0.00,,,0.00,WUHU21623XXSP,2013-03-05 03:50:00,
2013-03-04 22:55:00,52.9,39.4,29.63,NE,45,0.0,0.0,60,0.00,,,0.00,WUHU21623XXSP,2013-03-05 03:55:00,
2013-03-04 23:00:00,52.9,39.4,29.62,NE,45,0.0,0.0,60,0.00,,,0.00,WUHU21623XXSP,2013-03-05 04:00:00,
2013-03-04 23:05:00,52.9,39.4,29.62,NE,45,0.0,0.0,60,0.00,,,0.00,WUHU21623XXSP,2013-03-05 04:05:00,
2013-03-04 23:10:00,52.9,39.8,29.62,NE,45,0.0,0.0,61,0.00,,,0.00,WUHU21623XXSP,2013-03-05 04:10:00,
2013-03-04 23:15:00,52.7,39.6,29.62,NE,45,0.0,0.0,61,0.00,,,0.00,WUHU21623XXSP,2013-03-05 04:15:00,
2013-03-04 23:20:00,52.7,39.6,29.62,NE,45,0.0,0.0,61,0.00,,,0.00,WUHU21623XXSP,2013-03-05 04:20:00,
2013-03-04 23:25:00,52.3,39.6,29.62,NE,45,0.0,0.0,62,0.00,,,0.00,WUHU21623XXSP,2013-03-05 04:25:00,
2013-03-04 23:30:00,52.5,39.8,29.62,NE,45,0.0,0.0,62,0.00,,,0.00,WUHU21623XXSP,2013-03-05 04:30:00,
2013-03-04 23:35:00,52.5,39.8,29.62,NE,45,0.0,0.0,62,0.00,,,0.00,WUHU21623XXSP,2013-03-05 04:35:00,
2013-03-04 23:40:00,52.3,39.6,29.62,NE,45,0.0,0.0,62,0.00,,,0.00,WUHU21623XXSP,2013-03-05 04:40:00,
2013-03-04 23:45:00,52.3,40.1,29.62,NE,45,0.0,0.0,63,0.00,,,0.00,WUHU21623XXSP,2013-03-05 04:45:00,
2013-03-04 23:50:00,52.3,40.1,29.62,NE,45,0.0,0.0,63,0.00,,,0.00,WUHU21623XXSP,2013-03-05 04:50:00,
2013-03-04 23:55:00,52.3,40.1,29.62,NE,45,0.0,0.0,63,0.00,,,0.00,WUHU21623XXSP,2013-03-05 04:55:00,